GW1670 Weather Reports


Display with metric or nautical units.
time (UTC)temp
F
wind
direction
speed
MPH
gust
MPH
rain 1hr
in
rain 24hr
in
rain mn
in
humidity
%
barometer
mb
20260506013101 65 82 8.0 16.0 0.00 0.03 0.03 28 1014.1
20260506011551 66 76 11.0 24.0 0.00 0.03 0.03 27 1013.9
20260506010057 67 39 9.0 20.0 0.00 0.03 0.03 25 1013.7
20260506004548 67 88 12.0 24.0 0.00 0.03 0.03 27 1013.6
20260506003047 68 80 12.0 23.0 0.00 0.03 0.03 27 1013.4
20260506001547 69 105 14.0 24.0 0.00 0.03 0.03 28 1013.5
20260506000049 69 55 12.0 25.0 0.00 0.03 0.03 26 1013.4
20260505234552 69 61 14.0 25.0 0.00 0.03 0.03 26 1013.5
20260505233050 70 91 14.0 27.0 0.00 0.03 0.03 27 1013.3
20260505231606 70 84 16.0 28.0 0.00 0.03 0.03 25 1013.2
20260505230053 71 85 11.0 22.0 0.00 0.03 0.03 26 1013.2
20260505224556 72 34 10.0 23.0 0.00 0.03 0.03 25 1013.2
20260505223102 72 65 12.0 21.0 0.00 0.03 0.03 26 1013.4
20260505221544 72 29 8.0 27.0 0.00 0.03 0.03 27 1013.5
20260505220058 71 41 14.0 25.0 0.00 0.03 0.03 26 1013.8
20260505214555 70 101 15.0 29.0 0.00 0.03 0.03 28 1013.7
20260505213045 71 346 14.0 27.0 0.00 0.03 0.03 27 1014.2
20260505211544 71 296 13.0 24.0 0.00 0.03 0.03 30 1014.2
20260505210045 71 84 14.0 22.0 0.00 0.03 0.03 29 1014.4
20260505204542 71 59 13.0 26.0 0.00 0.03 0.03 31 1014.5
20260505203103 70 53 15.0 21.0 0.00 0.03 0.03 32 1014.5
20260505201543 70 53 14.0 25.0 0.00 0.03 0.03 32 1014.6
20260505200052 70 77 14.0 24.0 0.00 0.03 0.03 34 1014.6
20260505194545 69 36 10.0 29.0 0.00 0.03 0.03 33 1014.7
20260505193043 70 74 14.0 24.0 0.00 0.03 0.03 35 1014.9
20260505191605 69 42 14.0 28.0 0.00 0.03 0.03 37 1015.0
20260505190049 69 351 11.0 25.0 0.00 0.03 0.03 38 1015.4
20260505184547 68 105 10.0 24.0 0.00 0.03 0.03 37 1015.5
20260505183043 68 63 9.0 24.0 0.00 0.03 0.03 39 1015.7
20260505181547 67 86 10.0 21.0 0.00 0.03 0.03 43 1015.7
20260505180047 66 22 12.0 21.0 0.00 0.03 0.03 42 1015.8
20260505174543 65 24 11.0 20.0 0.00 0.03 0.03 45 1015.8
20260505173047 65 92 9.0 18.0 0.00 0.03 0.03 48 1016.1
20260505171548 63 348 3.0 15.0 0.00 0.03 0.03 52 1016.2
20260505164547 61 330 1.0 8.0 0.00 0.03 0.03 60 1016.3
20260505163052 62 32 4.0 15.0 0.00 0.03 0.03 54 1016.1
20260505161547 62 54 4.0 15.0 0.00 0.03 0.03 56 1016.0
20260505153047 60 46 6.0 22.0 0.00 0.03 0.03 59 1015.8
20260505151556 59 69 4.0 13.0 0.00 0.03 0.03 61 1015.8
20260505124543 53 0 0.0 2.0 0.02 0.02 0.02 83 1014.7
20260505123045 54 0 1.0 4.0 0.01 0.01 0.01 81 1014.2
20260505121555 54 0 0.0 1.0 0.00 0.00 0.00 79 1014.9
20260505120048 54 306 0.0 3.0 0.00 0.00 0.00 78 1015.0
20260505114546 54 245 2.0 7.0 0.00 0.00 0.00 75 1014.8
20260505113043 54 0 1.0 3.0 0.00 0.00 0.00 67 1015.3
20260505111545 54 0 1.0 4.0 0.00 0.00 0.00 69 1015.5
20260505101554 56 98 1.0 6.0 0.00 0.00 0.00 57 1016.1
20260505100046 57 0 2.0 7.0 0.00 0.00 0.00 49 1016.4
20260505094545 58 85 1.0 4.0 0.00 0.00 0.00 54 1016.5
20260505093045 58 0 1.0 5.0 0.00 0.00 0.00 52 1016.8
20260505091542 59 171 3.0 8.0 0.00 0.00 0.00 50 1016.9
20260505090101 59 150 4.0 8.0 0.00 0.00 0.00 49 1017.1
20260505084551 59 148 3.0 10.0 0.00 0.00 0.00 48 1017.3
20260505083052 59 169 2.0 6.0 0.00 0.00 0.00 45 1017.3
20260505081546 60 220 1.0 10.0 0.00 0.00 0.00 40 1017.7
20260505080042 60 150 3.0 6.0 0.00 0.00 0.00 37 1017.4
20260505074542 60 163 0.0 3.0 0.00 0.00 0.00 35 1017.6
20260505073046 61 156 3.0 7.0 0.00 0.00 0.00 35 1018.0
20260505071545 61 162 2.0 8.0 0.00 0.00 0.00 33 1017.7
20260505070046 61 264 0.0 2.0 0.00 0.00 0.00 31 1017.8
20260505064544 60 0 0.0 1.0 0.00 0.00 0.00 35 1017.9
20260505063044 60 0 0.0 0.0 0.00 0.00 0.00 35 1017.9
20260505061549 60 0 0.0 2.0 0.00 0.00 0.00 34 1017.9
20260505060051 60 0 0.0 3.0 0.00 0.00 0.00 35 1018.2
20260505054549 61 0 0.0 2.0 0.00 0.00 0.00 34 1018.0
20260505053057 61 158 1.0 10.0 0.00 0.00 0.00 32 1018.1
20260505051545 61 225 0.0 11.0 0.00 0.00 0.00 34 1018.1
20260505041546 61 150 8.0 19.0 0.00 0.00 0.00 37 1017.6
20260505040046 61 140 6.0 16.0 0.00 0.00 0.00 39 1017.6
20260505034543 61 130 7.0 16.0 0.00 0.00 0.00 37 1018.1
20260505033106 62 156 7.0 14.0 0.00 0.00 0.00 38 1018.2
20260505031546 62 159 7.0 14.0 0.00 0.00 0.00 38 1017.6
20260505030044 63 153 9.0 19.0 0.00 0.00 0.00 37 1017.4
20260505024542 63 150 6.0 11.0 0.00 0.00 0.00 35 1017.2
20260505023056 64 144 7.0 14.0 0.00 0.00 0.00 34 1016.8
20260505021540 66 168 7.0 16.0 0.00 0.00 0.00 31 1016.5
20260505020051 70 128 4.0 10.0 0.00 0.00 0.00 19 1016.2
20260505014548 71 111 4.0 8.0 0.00 0.00 0.00 20 1016.2